Вернуться в каталог

STARLINK-35769

АктивенСвязьVLEO
NORAD 66842·PAYLOAD·🇺🇸 United States

Запущен Dec 2, 2025 с Vandenberg Space Force Base

Loading…

Ближайшие Пролёты (ближайшие 24 часа)

TLE

СвежийSource: CelesTrak SupGP

Эпоха: Sep 15, 2026, 03:25 UTC

1 66842C 25280X   26258.14284722 -.00031007  00000+0 -25978-2 0  2589
2 66842  70.0013 216.6103 0002918 271.6567 251.4400 14.98357634    19

Отслеживайте STARLINK-35769 в реальном времени с AllMySat

Download on the App Store